Printer-friendly version

IAU Minor Planet Center

Minor Planet Center

MPEC 2000-C25: 2000 CK33

The following Minor Planet Electronic Circular may be linked-to from your own Web pages, but must not otherwise be redistributed electronically.


Read MPEC 2000-C24 Read MPEC 2000-C26


M.P.E.C. 2000-C25                                Issued 2000 Feb. 6, 16:58 UT

     The Minor Planet Electronic Circulars contain information on unusual
         minor planets and routine data on comets.  They are published
   on behalf of Commission 20 of the International Astronomical Union by the
          Minor Planet Center, Smithsonian Astrophysical Observatory,
                          Cambridge, MA 02138, U.S.A.

             Prepared using the Tamkin Foundation Computer Network

             BMARSDEN@CFA.HARVARD.EDU or GWILLIAMS@CFA.HARVARD.EDU
          URL http://cfa-www.harvard.edu/iau/mpc.html  ISSN 1523-6714

                                   2000 CK33

Observations:
     K00C33K* C2000 02 02.10755 04 44 50.64 +15 21 04.5          17.1        704
     K00C33K  C2000 02 02.12161 04 44 52.56 +15 21 57.2          17.5        704
     K00C33K  C2000 02 02.13566 04 44 54.45 +15 22 48.9          17.8        704
     K00C33K  C2000 02 02.14971 04 44 56.39 +15 23 41.3          17.9        704
     K00C33K  C2000 02 02.16374 04 44 58.25 +15 24 33.8          18.4        704
     K00C33K  C2000 02 03.08203 04 47 12.46 +16 19 46.9          17.5        704
     K00C33K  C2000 02 03.09162 04 47 13.76 +16 20 20.4          17.3 R      858
     K00C33K  C2000 02 03.09303 04 47 13.97 +16 20 26.1          17.6        704
     K00C33K  C2000 02 03.09389 04 47 14.05 +16 20 28.2          17.5 R      858
     K00C33K  C2000 02 03.09626 04 47 14.36 +16 20 36.9          17.3        704
     K00C33K  C2000 02 03.09692 04 47 14.47 +16 20 39.0          17.4 R      858
     K00C33K  C2000 02 03.10729 04 47 15.91 +16 21 16.3          17.8        704
     K00C33K  C2000 02 03.11052 04 47 16.29 +16 21 27.0          17.4        704
     K00C33K  C2000 02 03.12156 04 47 17.74 +16 22 06.4                      704
     K00C33K  C2000 02 03.12477 04 47 18.18 +16 22 17.3          18.3        704
     K00C33K  C2000 02 03.13579 04 47 19.74 +16 22 56.7                      704
     K00C33K  C2000 02 03.13907 04 47 20.09 +16 23 07.9          19.0        704
     K00C33K  C2000 02 03.15010 04 47 21.57 +16 23 46.7                      704
     K00C33K  C2000 02 03.19704 04 47 28.24 +16 26 31.2                      670
     K00C33K  C2000 02 03.23023 04 47 32.73 +16 28 25.9                      670
     K00C33K FC2000 02 03.43090 04 48 01.94 +16 40 30.9                      422
     K00C33K FC2000 02 03.43226 04 48 02.17 +16 40 34.4                      422
     K00C33K  C2000 02 03.43616 04 48 02.76 +16 40 48.3          18.9 R      422
     K00C33K  C2000 02 03.45339 04 48 05.44 +16 41 18.9          18.1 V      402
     K00C33K  C2000 02 03.45465 04 48 05.60 +16 41 23.8                      402
     K00C33K  C2000 02 03.45591 04 48 05.72 +16 41 27.4                      402
     K00C33K  C2000 02 03.45718 04 48 05.98 +16 41 32.2                      402
     K00C33K  C2000 02 03.74417 04 48 47.44 +16 57 46.3                      557
     K00C33K  C2000 02 03.74558 04 48 47.63 +16 57 50.6                      557
     K00C33K  C2000 02 03.74700 04 48 47.79 +16 57 55.4                      557
     K00C33K  C2000 02 03.74840 04 48 48.01 +16 58 00.3                      557
     K00C33K  C2000 02 03.75852 04 48 49.39 +16 58 34.9          17.2 R      046
     K00C33K  C2000 02 03.75965 04 48 49.54 +16 58 39.5                      046
     K00C33K  C2000 02 03.76076 04 48 49.69 +16 58 42.2                      046
     K00C33K  C2000 02 03.76168 04 48 49.82 +16 58 46.0                      046
     K00C33K  C2000 02 03.86944 04 49 04.46 +17 04 50.8          18.0 R      587
     K00C33K  C2000 02 03.87269 04 49 04.88 +17 05 01.7                      587
     K00C33K  C2000 02 04.22784 04 49 55.27 +17 24 42.2          18.0 V      681
     K00C33K  C2000 02 04.22900 04 49 55.43 +17 24 46.3          18.7 V      681
     K00C33K  C2000 02 04.23015 04 49 55.70 +17 24 50.7          18.2 V      681
     K00C33K  C2000 02 04.25162 04 49 58.30 +17 26 08.3          19.3 V      651
     K00C33K  C2000 02 04.25465 04 49 58.73 +17 26 18.3          19.3 V      651
     K00C33K  C2000 02 04.25752 04 49 59.10 +17 26 27.8                      651
     K00C33K  C2000 02 04.25911 04 49 59.82 +17 26 25.6          17.6 V      681
     K00C33K  C2000 02 04.26258 04 50 00.19 +17 26 36.7          17.6 V      681
     K00C33K  C2000 02 04.44088 04 50 25.87 +17 36 57.3          18.1 R      422
     K00C33K  C2000 02 04.44321 04 50 26.21 +17 37 04.7          18.1 R      422
     K00C33K  C2000 02 04.44553 04 50 26.50 +17 37 12.1          18.1 R      422
     K00C33K  C2000 02 04.74341 04 51 09.41 +17 52 41.9                      595
     K00C33K  C2000 02 04.74635 04 51 09.76 +17 52 51.5          18.0 V      595
     K00C33K  C2000 02 04.76227 04 51 11.81 +17 53 41.8                      118
     K00C33K  C2000 02 04.76333 04 51 11.96 +17 53 45.5                      118
     K00C33K  C2000 02 04.76841 04 51 12.61 +17 54 01.8          17.3 R      118
     K00C33K  C2000 02 05.08321 04 51 57.21 +18 10 48.1          18.9        704
     K00C33K  C2000 02 05.11233 04 52 01.06 +18 12 19.2          18.8        704
     K00C33K  C2000 02 05.12699 04 52 02.94 +18 13 05.3          18.9        704
     K00C33K  C2000 02 05.13019 04 52 03.38 +18 13 14.6          17.4 R      858
     K00C33K  C2000 02 05.13306 04 52 03.75 +18 13 23.7          17.3 R      858
     K00C33K  C2000 02 05.13611 04 52 04.17 +18 13 33.2          17.4 R      858
     K00C33K  C2000 02 05.14148 04 52 04.93 +18 13 51.0          19.2        704
     K00C33K  C2000 02 05.38574 04 52 38.95 +18 27 00.2          17.1 R      467
     K00C33K  C2000 02 05.39098 04 52 39.59 +18 27 16.4          17.2 R      467
     K00C33K  C2000 02 05.39463 04 52 40.03 +18 27 27.3          17.2 R      467
     K00C33K  C2000 02 05.45315 04 52 48.34 +18 30 26.5          18.3 R      422
     K00C33K  C2000 02 05.45414 04 52 48.47 +18 30 29.3          18.7 R      422
     K00C33K  C2000 02 05.45566 04 52 48.61 +18 30 34.7          18.2 R      422
     K00C33K  C2000 02 05.56985 04 53 03.98 +18 35 57.0          17.8 V      402
     K00C33K  C2000 02 05.57111 04 53 04.22 +18 36 00.8                      402
     K00C33K  C2000 02 05.57237 04 53 04.38 +18 36 03.8                      402
     K00C33K  C2000 02 05.57363 04 53 04.52 +18 36 08.1                      402
     K00C33K  C2000 02 05.79469 04 53 36.51 +18 47 17.9                      611
     K00C33K  C2000 02 05.79729 04 53 37.03 +18 47 24.8                      611
     K00C33K  C2000 02 05.79953 04 53 37.18 +18 47 32.4                      611
     K00C33K  C2000 02 05.91794 04 53 52.76 +18 53 30.4                      104
     K00C33K  C2000 02 05.92101 04 53 53.07 +18 53 39.0          18.6 V      104
     K00C33K  C2000 02 05.92443 04 53 53.59 +18 53 49.8                      104
     K00C33K  C2000 02 06.10418 04 54 19.71 +19 02 53.2          17.6 R      858
     K00C33K  C2000 02 06.10707 04 54 20.09 +19 03 02.0          17.8 R      858
     K00C33K  C2000 02 06.10983 04 54 20.44 +19 03 10.1          17.8 R      858
     K00C33K  C2000 02 06.17086 04 54 28.09 +19 06 10.0          19.3 V      734
     K00C33K  C2000 02 06.18119 04 54 29.48 +19 06 38.1          19.5 V      734
     K00C33K  C2000 02 06.18682 04 54 30.20 +19 06 54.6          19.3 V      734

Observer details:
046 Klet.  Observers M. Tichy, Z. Moravec.  0.57-m f/5.2 reflector + CCD.
104 San Marcello Pistoiese.  Observers L. Tesi, A. Boattini, M. Tombelli.
    Measurers G. Forti, L. Tesi, A. Boattini, M. Tombelli.  0.40-m f/5
    reflector + CCD.
118 Modra.  Observers A. Galad, J. Toth.  0.6-m f/5.5 reflector + CCD.
402 Dynic Astronomical Observatory.  Observer A. Sugie.  0.60-m f/3.7 reflector
    + CCD.
422 Loomberah.  Observer G. J. Garradd.  0.45-m f/5.4 reflector + CCD.
467 Auckland Observatory.  Observers I. P. Griffin, M. Arthur.  0.5-m reflector
    + CCD.
557 Ondrejov.  Observer P. Kusnirak.  0.65-m f/3.6 reflector + CCD.
587 Sormano.  Observers F. Manca, A. Testa.  0.5-m reflector + CCD.
595 Farra d'Isonzo.  Observer E. Pettarin.  0.40-m f/4.5 reflector + CCD.
611 Starkenburg.  Observers M. Busch, A. Seib, R. Stoss.  0.45-m f/4.4
    reflector + CCD.
651 Grasslands Observatory, Tucson.  Observer J. E. McGaha.  0.62-m f/5.1
    reflector + CCD.
670 Camarillo.  Observer J. E. Rogers.  0.30-m f/6.7 Helin Telescope + CCD.
681 Calgary.  Observer G. W. Billings.  0.36-m f/7 Schmidt-Cassegrain + CCD.
704 Lincoln Laboratory ETS, New Mexico.  Observers M. Blythe, F. Shelly,
    M. Bezpalko, M. Elowitz, R. Huber.  Measurers J. Stuart, H. Viggh,
    R. Sayer, J. B. Evans.  1.0-m f/2.15 reflector + CCD.
734 Farpoint Observatory.  Observers D. Brunken, G. Hug.  0.30-m
    Schmidt-Cassegrain + CCD.
858 Tebbutt Observatory, Edgewood.  Observer F. B. Zoltowski.  0.3-m f/3.3
    Schmidt-Cassegrain + CCD.

Orbital elements:
2000 CK33
Epoch 2000 Jan. 17.0 TT = JDT 2451560.5                 Williams
M  81.48756              (2000.0)            P               Q
n   1.03268387     Peri.  215.65251     +0.91911883     +0.29948149
a   0.9693735      Node   124.90989     -0.24823753     +0.94476709
e   0.4160893      Incl.   18.18969     -0.30593906     +0.13313900
P   0.95           H   18.4           G   0.15
From 82 observations 2000 Feb. 2-6.

Ephemeris:
2000 CK33                a,e,i = 0.97, 0.42, 18                  q = 0.5660
Date    TT    R. A. (2000) Decl.     Delta      r     Elong.  Phase     V
2000 01 27    04 29.01   +07 47.6    0.254    1.131   119.4    49.3    17.5
2000 02 01    04 42.11   +14 10.4    0.296    1.159   119.2    47.9    17.9
2000 02 06    04 54.08   +18 57.8    0.342    1.185   117.8    47.4    18.2
2000 02 11    05 05.43   +22 37.0    0.390    1.209   115.9    47.3    18.6
2000 02 16    05 16.46   +25 26.8    0.440    1.232   113.5    47.3    18.9
2000 02 21    05 27.33   +27 40.1    0.492    1.253   111.0    47.5    19.1
2000 02 26    05 38.16   +29 25.6    0.545    1.272   108.4    47.6    19.4
2000 03 02    05 49.03   +30 49.4    0.598    1.289   105.8    47.7    19.6
2000 03 07    06 00.00   +31 55.9    0.652    1.305   103.1    47.8    19.8
2000 03 12    06 11.09   +32 48.3    0.705    1.319   100.5    47.8    20.0
2000 03 17    06 22.32   +33 28.9    0.759    1.332    97.9    47.7    20.2

2000 03 27    06 45.12   +34 21.3    0.864    1.352    92.8    47.5    20.5
2000 04 06    07 08.36   +34 42.2    0.966    1.365    87.9    47.1    20.8
2000 04 16    07 31.98   +34 37.6    1.063    1.372    83.1    46.6    21.0
2000 04 26    07 55.84   +34 10.9    1.154    1.372    78.5    46.0    21.1
2000 05 06    08 19.86   +33 24.3    1.236    1.366    74.2    45.3    21.3
2000 05 16    08 44.00   +32 19.5    1.310    1.353    70.0    44.6    21.4
2000 05 26    09 08.18   +30 57.6    1.372    1.334    66.0    43.9    21.4
2000 06 05    09 32.41   +29 19.1    1.424    1.307    62.2    43.4    21.4

Gareth V. Williams           (C) Copyright 2000 MPC           M.P.E.C. 2000-C25

Read MPEC 2000-C24 Read MPEC 2000-C26


Our Web policy. Index to the CBAT/MPC/ICQ pages.


Valid HTML 4.01!